Weather History for KBDH - October, 2012

Change the Weather History Date:

Wednesday, October 3, 2012

  Actual Average (KLJF) Record (KLJF)
Temperature  
Mean Temperature 60 °F -  
Max Temperature 78 °F 67 °F 86 °F (1992)
Min Temperature 42 °F 41 °F 21 °F (1989)
Degree Days  
Heating Degree Days 5    
Growing Degree Days 10 (Base 50)    
Moisture  
Dew Point 26 °F    
Average Humidity 31    
Maximum Humidity 57    
Minimum Humidity 8    
Precipitation  
Precipitation 0.00 in - - ()
Sea Level Pressure  
Sea Level Pressure 29.84 in    
Wind  
Wind Speed 7 mph (SE)    
Max Wind Speed 17 mph    
Max Gust Speed 26 mph    
Visibility 10 miles    
Events      
Averages and records for this station are not official NWS values.
T = Trace of Precipitation, MM = Missing Value Source: NWS Daily Summary

Daily Weather History Graph

Daily Weather History Graph

Search for Another Location

Airport or City:

Trip Planner

Search our weather history database for the weather conditions in past years. The results will help you decide how hot, cold, wet, or windy it might be!

Date:

Astronomy

Oct. 03, 2012 Rise Set
Actual Time 7:21 AM CDT 6:56 PM CDT
Civil Twilight 6:52 AM CDT 7:25 PM CDT
Nautical Twilight 6:18 AM CDT 7:59 PM CDT
Astronomical Twilight 5:43 AM CDT 8:33 PM CDT
Moon 8:37 PM CDT (10/3) 10:56 AM CDT (10/3)
Length of Visible Light 12h 33m
Length of Day
11h 34m
Waning Gibbous, 88% of the Moon is Illuminated
Oct 3
Waning Gibbous
Oct 8
Last Quarter
Oct 15
New
Oct 21
First Quarter
Oct 29
Full

Hourly Weather History & Observations

Time (CDT) Temp. Windchill Dew Point Humidity Pressure Visibility Wind Dir Wind Speed Gust Speed Precip Events Conditions
12:15 AM 48.2 °F - 24.8 °F 40% 29.87 in 10.0 mi SSE 4.6 mph - N/A   Clear
12:36 AM 48.2 °F - 24.8 °F 40% 29.87 in 10.0 mi SSE 3.5 mph - N/A   Clear
12:55 AM 46.4 °F 45.2 °F 24.8 °F 43% 29.87 in 10.0 mi SSE 3.5 mph - N/A   Clear
1:15 AM 48.2 °F - 26.6 °F 43% 29.87 in 10.0 mi SSE 3.5 mph - N/A   Clear
1:36 AM 46.4 °F 44.3 °F 24.8 °F 43% 29.87 in 10.0 mi SE 4.6 mph - N/A   Clear
1:55 AM 46.4 °F 44.3 °F 24.8 °F 43% 29.87 in 10.0 mi SE 4.6 mph - N/A   Clear
2:15 AM 46.4 °F 43.5 °F 26.6 °F 46% 29.87 in 10.0 mi SE 5.8 mph - N/A   Clear
2:36 AM 46.4 °F 43.5 °F 26.6 °F 46% 29.87 in 10.0 mi SE 5.8 mph - N/A   Clear
2:55 AM 46.4 °F 42.9 °F 26.6 °F 46% 29.87 in 10.0 mi SE 6.9 mph - N/A   Clear
3:15 AM 46.4 °F 42.9 °F 26.6 °F 46% 29.87 in 10.0 mi SE 6.9 mph - N/A   Clear
3:36 AM 46.4 °F 43.5 °F 26.6 °F 46% 29.87 in 10.0 mi SE 5.8 mph - N/A   Clear
3:55 AM 46.4 °F 43.5 °F 26.6 °F 46% 29.87 in 10.0 mi SE 5.8 mph - N/A   Clear
4:15 AM 44.6 °F 42.2 °F 26.6 °F 49% 29.88 in 10.0 mi SE 4.6 mph - N/A   Clear
4:35 AM 44.6 °F 41.4 °F 26.6 °F 49% 29.87 in 10.0 mi SE 5.8 mph - N/A   Clear
4:55 AM 44.6 °F 41.4 °F 26.6 °F 49% 29.87 in 10.0 mi SE 5.8 mph - N/A   Clear
5:16 AM 44.6 °F 41.4 °F 26.6 °F 49% 29.88 in 10.0 mi SE 5.8 mph - N/A   Clear
5:35 AM 44.6 °F 42.2 °F 26.6 °F 49% 29.88 in 10.0 mi SE 4.6 mph - N/A   Clear
5:55 AM 44.6 °F 42.2 °F 26.6 °F 49% 29.88 in 10.0 mi SE 4.6 mph - N/A   Clear
6:16 AM 44.6 °F 41.4 °F 26.6 °F 49% 29.88 in 10.0 mi SE 5.8 mph - N/A   Clear
6:35 AM 44.6 °F 41.4 °F 28.4 °F 53% 29.88 in 10.0 mi SE 5.8 mph - N/A   Clear
6:55 AM 44.6 °F 40.7 °F 28.4 °F 53% 29.88 in 10.0 mi SE 6.9 mph - N/A   Clear
7:16 AM 42.8 °F 40.1 °F 28.4 °F 57% 29.88 in 10.0 mi SE 4.6 mph - N/A   Clear
7:35 AM 44.6 °F - 28.4 °F 53% 29.88 in 10.0 mi Calm Calm - N/A   Clear
7:55 AM 44.6 °F 43.1 °F 28.4 °F 53% 29.89 in 10.0 mi East 3.5 mph - N/A   Clear
8:15 AM 46.4 °F 43.5 °F 30.2 °F 53% 29.89 in 10.0 mi ESE 5.8 mph - N/A   Clear
8:35 AM 50.0 °F - 30.2 °F 47% 29.89 in 10.0 mi SE 5.8 mph - N/A   Clear
8:55 AM 51.8 °F - 30.2 °F 44% 29.89 in 10.0 mi SE 6.9 mph - N/A   Clear
9:15 AM 55.4 °F - 30.2 °F 38% 29.88 in 7.0 mi SSE 6.9 mph - N/A   Clear
9:35 AM 57.2 °F - 28.4 °F 33% 29.88 in 10.0 mi SSE 6.9 mph - N/A   Clear
9:55 AM 60.8 °F - 28.4 °F 29% 29.88 in 10.0 mi SSE 5.8 mph - N/A   Clear
10:15 AM 62.6 °F - 28.4 °F 27% 29.88 in 10.0 mi SSE 4.6 mph - N/A   Clear
10:35 AM 64.4 °F - 28.4 °F 26% 29.88 in 10.0 mi SSE 4.6 mph - N/A   Clear
10:55 AM 68.0 °F - 28.4 °F 23% 29.86 in 10.0 mi SSE 8.1 mph - N/A   Clear
11:15 AM 69.8 °F - 26.6 °F 20% 29.86 in 10.0 mi SSE 5.8 mph - N/A   Clear
11:35 AM 71.6 °F - 26.6 °F 19% 29.86 in 10.0 mi South 4.6 mph - N/A   Clear
11:55 AM 71.6 °F - 24.8 °F 17% 29.86 in 10.0 mi SSW 5.8 mph - N/A   Clear
12:15 PM 73.4 °F - 24.8 °F 16% 29.86 in 10.0 mi SSE 6.9 mph - N/A   Clear
12:35 PM 73.4 °F - 24.8 °F 16% 29.85 in 10.0 mi SSE 8.1 mph - N/A   Clear
12:56 PM 75.2 °F - 24.8 °F 15% 29.84 in 10.0 mi SE 13.8 mph - N/A   Clear
1:15 PM 77.0 °F - 23.0 °F 13% 29.83 in 10.0 mi SE 13.8 mph - N/A   Clear
1:35 PM 78.8 °F - 21.2 °F 12% 29.83 in 10.0 mi SSE 12.7 mph - N/A   Clear
1:56 PM 78.8 °F - 19.4 °F 11% 29.81 in 10.0 mi SSE 11.5 mph 20.7 mph N/A   Clear
2:15 PM 78.8 °F - 19.4 °F 11% 29.81 in 10.0 mi SSE 12.7 mph 21.9 mph N/A   Clear
2:35 PM 77.0 °F - 15.8 °F 10% 29.80 in 10.0 mi SE 12.7 mph 24.2 mph N/A   Clear
2:55 PM 77.0 °F - 17.6 °F 11% 29.80 in 10.0 mi SSE 15.0 mph 23.0 mph N/A   Clear
3:15 PM 78.8 °F - 15.8 °F 9% 29.80 in 10.0 mi SE 13.8 mph 21.9 mph N/A   Clear
3:35 PM 78.8 °F - 15.8 °F 9% 29.79 in 10.0 mi SSE 17.3 mph 21.9 mph N/A   Clear
3:55 PM 78.8 °F - 14.0 °F 9% 29.80 in 10.0 mi SE 12.7 mph 20.7 mph N/A   Clear
4:15 PM 78.8 °F - 12.2 °F 8% 29.80 in 10.0 mi SSE 13.8 mph 20.7 mph N/A   Clear
4:35 PM 78.8 °F - 14.0 °F 9% 29.80 in 10.0 mi SSE 12.7 mph - N/A   Clear
4:55 PM 78.8 °F - 15.8 °F 9% 29.80 in 10.0 mi SSE 12.7 mph 20.7 mph N/A   Clear
5:15 PM 77.0 °F - 19.4 °F 12% 29.80 in 10.0 mi SSE 12.7 mph 17.3 mph N/A   Clear
5:55 PM 75.2 °F - 23.0 °F 14% 29.80 in 10.0 mi SE 9.2 mph - N/A   Clear
6:15 PM 73.4 °F - 24.8 °F 16% 29.81 in 10.0 mi SE 8.1 mph - N/A   Clear
6:35 PM 71.6 °F - 26.6 °F 19% 29.81 in 10.0 mi ESE 8.1 mph - N/A   Clear
6:55 PM 68.0 °F - 28.4 °F 23% 29.81 in 10.0 mi SE 6.9 mph - N/A   Clear
7:15 PM 66.2 °F - 28.4 °F 24% 29.82 in 10.0 mi SE 9.2 mph - N/A   Clear
7:35 PM 64.4 °F - 30.2 °F 28% 29.82 in 10.0 mi SE 9.2 mph - N/A   Clear
7:55 PM 64.4 °F - 30.2 °F 28% 29.82 in 10.0 mi SE 8.1 mph - N/A   Clear
8:15 PM 60.8 °F - 30.2 °F 31% 29.81 in 10.0 mi ESE 8.1 mph - N/A   Clear
8:35 PM 62.6 °F - 30.2 °F 30% 29.81 in 10.0 mi ESE 9.2 mph - N/A   Clear
8:55 PM 64.4 °F - 30.2 °F 28% 29.81 in 10.0 mi ESE 11.5 mph - N/A   Clear
9:16 PM 66.2 °F - 30.2 °F 26% 29.80 in 10.0 mi ESE 10.4 mph - N/A   Clear
9:35 PM 64.4 °F - 30.2 °F 28% 29.80 in 10.0 mi ESE 10.4 mph - N/A   Clear
9:55 PM 64.4 °F - 30.2 °F 28% 29.80 in 10.0 mi ESE 12.7 mph - N/A   Clear
10:16 PM 66.2 °F - 30.2 °F 26% 29.80 in 10.0 mi ESE 12.7 mph - N/A   Scattered Clouds
10:35 PM 66.2 °F - 30.2 °F 26% 29.79 in 10.0 mi SE 13.8 mph - N/A   Mostly Cloudy
10:55 PM 66.2 °F - 30.2 °F 26% 29.78 in 10.0 mi SE 15.0 mph - N/A   Mostly Cloudy
11:16 PM 64.4 °F - 30.2 °F 28% 29.76 in 10.0 mi SE 16.1 mph - N/A   Scattered Clouds
11:35 PM 64.4 °F - 30.2 °F 28% 29.75 in 10.0 mi SE 16.1 mph - N/A   Clear
11:55 PM 66.2 °F - 30.2 °F 26% 29.73 in 10.0 mi SE 17.3 mph 26.5 mph N/A   Clear